Location: Newark
(58.8333°N, 23.5833°E)
Time: 21:39:45
(UTC+00:00)

Vanguard 2 - Pass Details

Date: 30 November 2019
Orbit: 553 x 2938 km, 32.9° (Epoch: 07 December)

Event Time Altitude Azimuth Distance (km) Brightness Sun altitude
Rises 03:04:18 0° 214° (SW) 6,756 12.0 -27.3°
Reaches altitude 10° 03:11:16 10° 198° (SSW) 5,559 11.7 -26.4°
Maximum altitude 03:20:02 17° 165° (SSE) 4,530 11.5 -25.3°
Drops below altitude 10° 03:27:25 10° 131° (SE) 4,572 12.1 -24.3°
Sets 03:32:12 0° 113° (ESE) 5,137 12.9 -23.7°
